JQ3CCU-10 Weather Reports


time (UTC)temp
C
wind
direction
speed
KPH
gust
KPH
rain 1hr
cm
rain 24hr
cm
rain mn
cm
humidity
%
barometer
mb
20260505095415 24 0 0.0 0.0 0.00 0.00 0.00 56
20260505092415 25 0 0.0 0.0 0.00 0.00 0.00 53
20260505085415 25 0 0.0 0.0 0.00 0.00 0.00 53
20260505082415 25 0 0.0 0.0 0.00 0.00 0.00 52
20260505075415 25 0 0.0 0.0 0.00 0.00 0.00 52
20260505072415 25 0 0.0 0.0 0.00 0.00 0.00 52
20260505065415 25 0 0.0 0.0 0.00 0.00 0.00 52
20260505062415 24 0 0.0 0.0 0.00 0.00 0.00 53
20260505055415 24 0 0.0 0.0 0.00 0.00 0.00 53
20260505052415 24 0 0.0 0.0 0.00 0.00 0.00 53
20260505035415 24 0 0.0 0.0 0.00 0.00 0.00 52
20260505032415 24 0 0.0 0.0 0.00 0.00 0.00 51
20260505025415 24 0 0.0 0.0 0.00 0.00 0.00 51
20260505022415 25 0 0.0 0.0 0.00 0.00 0.00 48
20260505015415 25 0 0.0 0.0 0.00 0.00 0.00 48
20260505012415 29 0 0.0 0.0 0.00 0.00 0.00 39
20260505005415 29 0 0.0 0.0 0.00 0.00 0.00 39
20260505002415 31 0 0.0 0.0 0.00 0.00 0.00 35
20260504235415 31 0 0.0 0.0 0.00 0.00 0.00 35
20260504232415 30 0 0.0 0.0 0.00 0.00 0.00 36
20260504225415 30 0 0.0 0.0 0.00 0.00 0.00 36
20260504222415 23 0 0.0 0.0 0.00 0.00 0.00 50
20260504215415 23 0 0.0 0.0 0.00 0.00 0.00 50
20260504212415 18 0 0.0 0.0 0.00 0.00 0.00 64
20260504205415 18 0 0.0 0.0 0.00 0.00 0.00 64
20260504202415 17 0 0.0 0.0 0.00 0.00 0.00 69
20260504195415 17 0 0.0 0.0 0.00 0.00 0.00 69
20260504192415 17 0 0.0 0.0 0.00 0.00 0.00 69
20260504185415 17 0 0.0 0.0 0.00 0.00 0.00 69
20260504182415 17 0 0.0 0.0 0.00 0.00 0.00 70
20260504175415 17 0 0.0 0.0 0.00 0.00 0.00 70
20260504172415 18 0 0.0 0.0 0.00 0.00 0.00 70